Regional Weather Roundup
Issued by NWS

Home | Current Version | Previous Version | Graphics & Text | Print | Product List | Glossary On
Versions: 1 2 3 4 5 6 7 8 9 10 11 12 13 14 15 16 17 18 19 20 21 22 23 24 25 26 27 28
000
ASUS45 KSLC 270510
RWRUT

UTAH REGIONAL WEATHER ROUNDUP
NATIONAL WEATHER SERVICE SALT LAKE CITY UT
1000 PM MST SUN FEB 26 2017

UTZ001>011-023>025-270600-

NORTHERN UTAH

CITY           SKY/WX    TMP DP  RH WIND       PRES   REMARKS
BRIGHAM CITY     N/A     38  23  54 NW6       29.65F WCI  33
HILL AFB       CLOUDY    34  19  54 SE13      29.63F WCI  25
LOGAN          CLOUDY    34  21  59 NE7       29.65F WCI  28
OGDEN          CLOUDY    35  21  56 S13       29.63F WCI  26
SALT LAKE CITY MOCLDY    37  21  52 SE8       29.65F WCI  31
TOOELE VALLEY  MOCLDY    36  23  60 SE10      29.65F WCI  28
WENDOVER       CLOUDY    37  21  52 CALM      29.62F
HEBER CITY     CLOUDY    34  16  47 SE12      29.66F WCI  25
WEST JORDAN    CLOUDY    37  29  73 S9        29.67F WCI  31

$$

UTZ011>015-024>027-270600-

CENTRAL/NORTHEAST UTAH

CITY           SKY/WX    TMP DP  RH WIND       PRES   REMARKS
PROVO AIRPORT  CLOUDY    36  22  56 SE10      29.70S WCI  28
MOAB/CANYONLAN PTCLDY    37  14  38 S7        29.76F WCI  32
DELTA          PTCLDY    36  21  55 S23G31    29.70S WCI  24
PRICE          CLOUDY    31  22  69 CALM      29.73F
ROOSEVELT      CLOUDY    27  19  74 CALM      29.80F
VERNAL         CLOUDY    22  14  71 CALM      29.78F

$$

UTZ013>016-019>022-027-270600-

SOUTHERN UTAH

CITY           SKY/WX    TMP DP  RH WIND       PRES   REMARKS
BRYCE CANYON   MOCLDY    25  15  66 S10       29.79S WCI  15
CEDAR CITY     PTCLDY    36  21  54 S16G25    29.74F WCI  26
MILFORD        CLEAR     35  21  56 S13       29.73F WCI  26
ST GEORGE      CLOUDY    45  27  49 SE6       29.82S
HANKSVILLE     PTCLDY    37  18  44 SE7       29.79S WCI  32
BLANDING       CLOUDY    32  16  52 CALM      29.91R

$$

REGIONAL REPORTS     COLORADO/ARIZONA

CITY           SKY/WX    TMP DP  RH WIND       PRES   REMARKS
CRAIG, CO      CLOUDY    18   7  62 E6        29.78F WCI  10
GRAND JUNCTION PTCLDY    31  12  45 SE7       29.79F WCI  24
RIFLE, CO      MOCLDY    26  15  63 E3        29.81F
MONTROSE, CO   CLOUDY    31  12  45 SE12      29.85F WCI  22
CORTEZ, CO     CLOUDY    26  19  74 W3        29.87F
COLORADO CITY  CLOUDY    36  28  75 CALM      29.86R
PAGE, AZ       CLEAR     44  18  35 SW12      29.80R
GRAND CANYON   CLOUDY    32  25  75 SW10      29.87R WCI  24
KINGMAN, AZ    PTCLDY    46  18  32 S15       29.87R
FLAGSTAFF, AZ  CLOUDY    32  24  72 SW12G25   29.89S WCI  23

$$

REGIONAL REPORTS    NEVADA/IDAHO/WYOMING

CITY           SKY/WX    TMP DP  RH WIND       PRES   REMARKS
LAS VEGAS, NV  PTCLDY    53  30  41 S9        29.78S
ELY, NY        CLEAR     31  19  61 S20G26    29.66R WCI  19
ELKO, NV       LGT SNOW  30  25  81 CALM      29.65R
POCATELLO, ID  LGT SNOW  28  24  85 W9        29.67S FOG     WCI  19
BURLEY, ID     CLOUDY    29  21  72 NW14      29.68R WCI  18
FORT BRIDGER,  PTCLDY    16   5  62 S6        29.68F WCI   7
EVANSTON, WY   CLOUDY    22  11  62 W5        29.63F WCI  16
ROCK SPRINGS,  PTCLDY    12  -2  53 SE8       29.69F WCI   0

$$




USA.gov is the U.S. government's official web portal to all federal, state and local government web resources and services.